www.pogodaiklimat.ru

Архив погоды в Певеке (Чукотка, Россия)

Время
(UTC), дата
00 28.06
03 28.06
06 28.06
09 28.06
12 28.06
15 28.06
18 28.06
21 28.06
00 29.06
03 29.06
06 29.06
09 29.06
12 29.06
15 29.06
18 29.06
21 29.06
00 30.06
03 30.06
06 30.06
09 30.06
12 30.06
15 30.06
18 30.06
21 30.06
00 1.07
03 1.07
06 1.07
09 1.07
12 1.07
15 1.07
18 1.07
21 1.07
00 2.07
03 2.07
06 2.07
09 2.07
12 2.07
15 2.07
18 2.07
21 2.07
00 3.07
03 3.07
06 3.07
09 3.07
12 3.07
15 3.07
18 3.07
21 3.07
00 4.07
03 4.07
06 4.07
09 4.07
12 4.07
15 4.07
18 4.07
Ветер
(напр.,м/с)
Видим. Явления Облачность Т
(С)
Тd
(С)
f
(%)
Тe
(С)
Тes
(С)
Комфортность P
(гПа)
Po
(гПа)
Тmin
(С)
Tmax
(С)
R
(мм)
R24
(мм)
S
(см)
Ю 1
{4}
20 км 9/0
[Ac trans Ci]
+6.2 +0.4 66 +5 +15 опасность
простуды
1006.6 1005.9
С 2
{3}
20 км 4/0
[Ci fib]
+10.5 +1.5 54 +9 +18 тепло 1004.5 1003.8
СВ 2
{5}
20 км 8/3 600 м
[Sc Ac trans Ci fib]
+9.3 +2.1 61 +8 +10 по сезону 1002.3 1001.6
В 6
{9}
20 км 9/3 600 м
[Sc Ac lent Ci sp]
+13.2 +3.5 52 +11 +11 тепло 999.0 998.4 +13.2
ЮВ 12-15
{15}
20 км 8/1 600 м
[Sc Ac cast Ci sp]
+12.0 +4.0 58 +8 +8 тепло 996.7 996.1
ЮВ 18-23
{27}
20 км 9/3 600 м
[Sc Ac trans Cc]
+11.4 +7.9 79 +6 +6 по сезону 993.6 993.0
ЮВ 12-17
{23}
20 км 10/4 600 м
[Sc Ac und]
+14.0 +8.6 70 +11 +11 тепло 992.7 992.1
ЮВ 8-10
{19}
20 км слаб. ливневой дождь 10/8 600 м
[Cu hum Ac und]
+13.3 +10.4 83 +11 +11 тепло 994.8 994.2 +11.1 0.0
Ю 4
{8}
3100 м дымка {ливн. дождь} 9/9 300 м
[Sc]
+5.4 +4.9 97 +1 +2 по сезону 997.3 996.6
С 3
{6}
20 км 9/9 300 м
[Sc]
+6.6 +5.2 91 +3 +4 по сезону 999.1 998.4
С 2
{6}
20 км 9/9 600 м
[Sc]
+4.1 +1.8 85 +1 +2 прохладно 1001.2 1000.5
С 1
{5}
13 км дождь 10/4 200 м
[Frnb As op]
+1.7 +0.9 94 -0 -0 прохладно 1003.1 1002.4 +13.5 1
ЮВ 1
{5}
20 км слаб. дождь 10/9 300 м
[Cb calv As op]
+1.3 +0.6 95 -1 -1 прохладно 1004.0 1003.3
С 1
{6}
9000 м дождь 10/4 200 м
[Frnb As op]
+1.1 +0.5 96 -1 -1 прохладно 1004.1 1003.4
С 1
{4}
15 км слаб. дождь 10/5 200 м
[Frnb As op]
+1.0 +0.4 96 -1 -1 прохладно 1005.0 1004.3
С 4
{6}
8000 м сильн. дождь 10/4 300 м
[Frnb As op]
+1.8 +1.2 96 -3 -3 холодно 1004.9 1004.2 +0.9 7
З 1
{5}
9000 м сильн. дождь 10/3 300 м
[Frnb As op]
+3.2 +2.7 97 +1 +3 очень
холодно
1005.6 1004.9
Ю 4
{5}
9000 м сильн. дождь 10/3 200 м
[Frnb As op]
+2.6 +2.3 98 -2 -2 очень
холодно
1006.0 1005.3
ЮЗ 2
{6}
8000 м сильн. дождь 10/3 100 м
[Frnb As op]
+2.9 +2.6 98 -0 0 очень
холодно
1006.4 1005.7
ЮЗ 3
{4}
20 км слаб. дождь 10/4 200 м
[Frnb As op]
+3.1 +2.8 98 -1 -1 очень
холодно
1006.5 1005.8 +3.5 14
З 1
{4}
20 км слаб. дождь 10/6 200 м
[Frnb As op]
+2.9 +2.6 98 +1 +1 холодно 1006.5 1005.8
Ю 1
{3}
20 км {дождь} 10/10 200 м
[Sc]
+3.0 +2.7 98 +1 +1 холодно 1005.9 1005.2
С 1
{3}
20 км {дождь} 10/3 200 м
[St Ac trans Ci sp]
+3.3 +2.8 97 +2 +2 холодно 1006.1 1005.4
СВ 1
{3}
20 км 10/10 200 м
[St]
+3.4 +2.8 96 +2 +2 холодно 1006.8 1006.1 +2.7 0.1
С 1
{4}
20 км в посл. час дождь 9/8 200 м
[Sc Ac trans]
+4.9 +3.4 90 +4 +5 прохладно 1006.9 1006.2
С 2
{3}
20 км 9/8 200 м
[Sc Ac trans]
+4.7 +3.5 92 +2 +3 холодно 1006.9 1006.2
С 2
{3}
20 км 9/3 600 м
[Sc Ac trans]
+5.1 +3.7 91 +2 +4 очень
холодно
1006.7 1006.0
ЮЗ 1
{2}
20 км 10/0
[Ac und]
+5.2 +3.9 91 +4 +4 прохладно 1007.0 1006.3 +7.0 0.0
ЮЗ 2
{2}
20 км 9/0
[Ac trans Ci sp]
+4.0 +3.1 94 +1 +1 прохладно 1006.6 1005.9
ЮЗ 2
{3}
20 км 10/0
[Ac As]
+3.3 +2.6 95 0 0 прохладно 1006.5 1005.8
ЮЗ 1
{3}
20 км 10/1 600 м
[Sc Ac As]
+3.9 +2.9 93 +2 +3 прохладно 1006.9 1006.2
ЮЗ 1
{2}
20 км 10/10 600 м +3.4 +4.7 100 +2 +2 прохладно 1007.1 1006.4 +3.3 0.0
ЮЗ 3
{4}
15 км слаб. дождь 10/1 200 м
[Frnb As op]
+4.7 +4.0 95 +1 +2 холодно 1006.8 1006.1
С 4
{6}
20 км 9/1 300 м
[St Ac trans Cc]
+8.0 +5.9 87 +5 +7 прохладно 1005.9 1005.2 26
С 4
{8}
20 км 8/0
[Ac trans Cc]
+7.3 +5.1 86 +4 +5 холодно 1005.9 1005.3 26
СВ 6
{9}
20 км 6/0
[Ac trans Ci sp]
+4.2 +3.2 93 -1 -1 очень
холодно
1006.2 1005.5 +8.8 0.1
С 5
{8}
20 км 8/0
[Ac trans]
+6.8 +5.0 88 +3 +3 по сезону 1005.4 1004.7
С 4
{7}
20 км 9/0
[Ac trans]
+3.2 +2.3 94 -2 -2 холодно 1005.5 1004.8
СВ 1
{7}
20 км 10/0
[Ac und]
+3.9 +2.9 93 +2 +3 прохладно 1006.4 1005.7
ЮЗ 2
{3}
20 км слаб. ливневой дождь 10/9 600 м
[Cb cap Ac und]
+4.4 +3.2 92 +2 +2 прохладно 1006.8 1006.1 +2.8 0.4
Ю 3
{4}
7000 м сильн. дождь {ливн. дождь} 10/1 200 м
[Frnb As op]
+3.8 +3.3 97 -0 +1 холодно 1006.6 1005.9
З 4
{6}
9000 м сильн. дождь 10/4 200 м
[Frnb As op]
+3.4 +2.9 97 -1 -1 очень
холодно
1006.9 1006.2
Ю 6
{11}
20 км {дождь} 10/9 300 м
[Sc Ac trans]
+2.2 +1.3 94 -4 -4 очень
холодно
1007.8 1007.1
ЮЗ 6
{8}
20 км 10/9 200 м
[Sc Ac trans]
+2.1 +1.6 96 -4 -4 очень
холодно
1008.5 1007.8 +4.6 4
Ю 3
{7}
20 км 10/6 300 м
[Sc Ac und]
+1.9 +1.5 97 -3 -3 холодно 1009.1 1008.4
ЮЗ 3
{5}
20 км 10/4 200 м
[Sc Ac und]
+2.0 +1.5 96 -2 -2 холодно 1009.2 1008.5
ЮЗ 2
{5}
5000 м сильн. дождь 10/4 300 м
[Frnb As op]
+2.5 +2.1 97 -1 -1 холодно 1009.2 1008.5
ЮЗ 2
{3}
20 км слаб. дождь 10/5 200 м
[Frnb Ac As]
+2.9 +2.6 98 -0 +1 холодно 1009.3 1008.6 +1.8 1
С 2
{4}
20 км {дождь} 10/3 600 м
[Sc Ac und]
+4.1 +3.3 95 +1 +3 холодно 1009.6 1008.9
С 4
{6}
20 км 8/3 600 м
[Sc Ac trans Ci fib]
+5.4 +3.4 87 +1 +4 холодно 1009.6 1008.9
С 3
{6}
20 км 1/0
[Ci fib]
+8.2 +5.2 81 +6 +9 прохладно 1009.2 1008.5
СВ 2
{4}
20 км 1/1 600 м
[Cu hum]
+12.3 +6.3 67 +12 +12 тепло 1009.6 1009.0 +12.3 0.0
ЮЗ 2
{5}
20 км ясно +3.8 +2.5 91 +1 +1 по сезону 1009.5 1008.8
ЮЗ 3
{5}
20 км ясно +2.6 +1.8 94 -2 -1 холодно 1009.5 1008.8
штиль 0
{3}
20 км 1/0
[Ac trans]
+4.5 +2.4 86 +4 +6 по сезону 1009.7 1009.0
Местоположение метеостанции Певек (Чукотка, Россия): широта 69.70 долгота 170.20 высота над уровнем моря 5 м.
В архиве по умолчанию представлена погода в Певеке за последнюю неделю. Архивные данные за месяц целиком и за предыдущие месяцы, начиная с января 2011 года, Вы можете получить, выбрав интересующий диапазон дат из раскрывающегося списка и нажав кнопку "Найти!".
*Определитесь, кто Вы:
Внимание! Время в таблицах - всемирное. Для получения местного времени необходимо прибавить поправку, которая равна 12 ч.
Смотрите также архив погоды в соседних городах и на ближайших метеорологических станциях:
Партнеры нашего сайта:      
Пояснения к столбцам:
  • Ветер - указаны скорость ветра в м/с - средняя за 10 мин, порывы в срок и между сроками (в фигурных скобках) и направление, откуда дует ветер: С - северный,
  • СВ - северо-восточный, В - восточный, ЮВ - юго-восточный, Ю - южный, ЮЗ - юго-западный, З - западный, СЗ - северо-западный.
  • Видимость - горизонтальная дальность видимости в метрах или километрах. При видимости от 1 до 10 км при отсутствии осадков обычно наблюдается дымка, при ухудшении видимости до 1 км и менее - туман. В сухую погоду видимость может ухудшаться дымом, пылью или мглою.
  • Явления - указаны атмосферные явления, наблюдавшиеся в срок или в последний час перед сроком; фигурными скобками обозначены явления, наблюдавшиеся между сроками (за 1-3 часа до срока); квадратными скобками обозначены град или гололедные отложения с указанием их диаметра в мм.
  • Облачность - указаны через наклонную черту общая и нижняя облачность в баллах и высота нижней границы облаков в метрах; квадратными скобками обозначены формы облаков: Ci - перистые, Cs - перисто-слоистые, Cc - перисто-кучевые, Ac - высококучевые, As - высокослоистые, Sc - слоисто-кучевые, Ns - слоисто-дождевые, Cu - кучевые, Cb - кучево-дождевые. Подробнее классификацию облаков см. в Атласе облаков (PDF).
  • T - Температура воздуха - температура, измеренная на высоте 2 м над землей.
  • Td - Температура точки росы - температура, при понижении до которой содержащийся в воздухе водяной пар достигнет насыщения.
  • f - Относительная влажность воздуха - влажноcть воздуха, измеренная на высоте 2 м над землей.
  • Te - Эффективная температура - температура, которую ощущает одетый по сезону человек в тени. Характеристика душности погоды. При расчете учитывается влияние влажности воздуха и скорости ветра на теплоощущения человека.
  • Tes - Эффективная температура на солнце - температура, которую ощущает человек, с поправкой на солнечный нагрев. Характеристика знойности погоды. Зависит от высоты солнца над горизонтом, облачности и скорости ветра. Ночью, в пасмурную погоду, а также при ветре 12 м/с и более поправка равна нулю.
  • P - Атмосферное давление - приведенное к уровню моря атмосферное давление.
  • Po - Атмосферное давление - измеренное на уровне метеостанции атмосферное давление.
  • Tmin - Минимальная температура - минимум температуры воздуха на высоте 2 м над землей.
  • Tmax - Максимальная температура - максимум температуры воздуха на высоте 2 м над землей.
  • R - Количество осадков - Количество выпавших осадков за период времени, мм. При наведении курсора мыши на число - период времени, за который выпало указанное количество осадков.
  • R24 - Количество осадков - Количество выпавших осадков за 24 часа, мм.
  • S - Снежный покров - Высота снежного покрова, см. При наведении курсора мыши на число - состояние снежного покрова и степень покрытия местности в баллах.